AirNav   Everest Fuels
 
 1383 users online  

8TN2 Pleasant Grove Airpark
Shelbyville, Tennessee, USA

GOING TO SHELBYVILLE?


FAA INFORMATION EFFECTIVE 21 MAY 2020

Location

FAA Identifier: 8TN2
Lat/Long: 35-23-56.0000N 086-33-14.0000W
35-23.933333N 086-33.233333W
35.3988889,-86.5538889
(estimated)
Elevation: 850 ft. / 259 m (estimated)
Variation: 02W (1995)
From city: 7 miles SW of SHELBYVILLE, TN
Time zone: UTC -5 (UTC -6 during Standard Time)
Zip code: 37160

Airport Operations

Airport use: Private use. Permission required prior to landing
Activation date: 06/1998
Control tower: no
ARTCC: MEMPHIS CENTER
FSS: NASHVILLE FLIGHT SERVICE STATION
Attendance: IREG
Wind indicator: yes
Segmented circle: no

Airport Communications

WX AWOS-3 at SYI (11 nm NE): 119.275 (931-685-4723)
WX AWOS-3 at LUG (14 nm NW): 135.775 (931-270-1014)
WX AWOS-3 at THA (15 nm E): 128.325 (931-454-2052)

Nearby radio navigation aids

VOR radial/distance  VOR name  Freq  Var
SYIr211/11.3SHELBYVILLE VOR/DME113.5501W
RQZr004/36.3ROCKET VORTAC112.2002E

 
NDB name  Hdg/Dist  Freq  Var  ID
WALTER HILL197/34.937102WFQW ..-. --.- .--

Airport Services

Runway Information

Runway 10/28

Dimensions: 3000 x 60 ft. / 914 x 18 m
Surface: turf
RUNWAY 10  RUNWAY 28
Traffic pattern: leftright
Obstructions: none35 ft. pline

Airport Ownership and Management from official FAA records

Ownership: Privately-owned
Owner: PLEASANT GROVE AIRPARK ASSN LLC
2056 HWY 130W
SHELBYVILLE, TN 37160
Phone (931) 607-9489
Manager: BLAKE BUTLER
2056 HWY 130W
SHELBYVILLE, TN 37160
Phone (931) 607-9489
BUTLERBLAKE1@GMAIL.COM

Airport Operational Statistics

Aircraft based on the field: 6
Single engine airplanes: 5
Gliders airplanes: 1
    

Additional Remarks

FOR CD CTC MEMPHIS ARTCC AT 901-368-8453.

Instrument Procedures

There are no published instrument procedures at 8TN2.

Some nearby airports with instrument procedures:

KSYI - Bomar Field-Shelbyville Municipal Airport (11 nm NE)
KLUG - Ellington Airport (14 nm NW)
KTHA - Tullahoma Regional Airport/William Northern Field (15 nm E)
KFYM - Fayetteville Municipal Airport (20 nm S)
KBGF - Winchester Municipal Airport (27 nm SE)
 
Loc | Ops | Rwys | IFR | FBO | Links
Com | Nav | Svcs | Stats | Notes
Area around 8TN2 (Pleasant Grove Airpark)
 
Road maps at: MapQuest Bing Google
 
Aerial photo
No photo
 
Sectional chart

 
Airport distance calculator
Flying to Pleasant Grove Airpark? Find the distance to fly.

From to 8TN2

Sunrise and sunset
Times for 01-Jun-2020
 Local
(UTC-5)
 Zulu
(UTC)
Morning civil twilight05:0410:04
Sunrise05:3310:33
Sunset19:5500:55
Evening civil twilight20:2501:25

Current date and time
Zulu (UTC)  01-Jun-2020 15:43:10
Local (UTC-5)  01-Jun-2020 10:43:10
 
METAR
KSYI 
11nm NE 
011515Z AUTO VRB05KT 10SM CLR 23/12 A3025 RMK A01
KLUG 
14nm NW 
011515Z AUTO 05005KT 10SM CLR 23/12 A3025 RMK A01
KTHA 
15nm E 
011515Z AUTO 10006KT 10SM CLR 23/12 A3025 RMK A01
KFYM 
20nm S 
011515Z AUTO 13010KT 10SM FEW025 23/14 A3023 RMK A01
TAF
NOTAMs
Click for the latest NOTAMs
NOTAMs are issued by the DoD/FAA and will open in a separate window not controlled by AirNav.

 

 
 

Would you like to see your business listed on this page?

 If your business provides an interesting product or service to pilots, flight crews, aircraft, or users of the Pleasant Grove Airpark, you should consider listing it here.  To start the listing process, click on the button below
 
Add a business
 

Other Pages about Pleasant Grove Airpark

Update a link
 
Copyright © AirNav, LLC. All rights reserved. Privacy Policy  Contact